Location: Famechon
(49.7599°N, 2.0615°E)
Time: 11:58:22
(UTC+00:00)

Lacrosse 5 - Pass Details

Date: 03 February 2023
Orbit: 714 x 724 km, 57.0° (Epoch: 09 March)

Event Time Altitude Azimuth Distance (km) Brightness Sun altitude
Rises 18:25:44 0° 227° (SW) 3,126 6.1 -15.7°
Reaches altitude 10° 18:28:06 10° 226° (SW) 2,209 5.2 -16.1°
Maximum altitude 18:33:11 74° 142° (SE) 757 1.8 -16.9°
Enters shadow 18:35:50 29° 63° (ENE) 1,324 2.7 -17.3°
